This is the latest recevied weather packets stored in our database for station/object WE8M. If no packets are shown the sender has not sent any weather packets the latest 10 day(s).
| Time | Temp. | Humidity | Pressure | Rain* | Wind** | Luminosity | Snow |
|---|---|---|---|---|---|---|---|
| 1777594524 | 11.11° C | 50% | 1015.3 hPa | 0 mm | - | - | - |
| 1777594221 | 11.11° C | 50% | 1015.5 hPa | 0 mm | - | - | - |
| 1777593916 | 11.67° C | 51% | 1015.5 hPa | 0 mm | - | - | - |
| 1777593613 | 11.67° C | 50% | 1015.3 hPa | 0 mm | - | - | - |
| 1777593309 | 11.67° C | 51% | 1015.3 hPa | 0 mm | - | - | - |
| 1777593003 | 11.67° C | 49% | 1015.2 hPa | 0 mm | - | - | - |
| 1777592697 | 12.22° C | 47% | 1015 hPa | 0 mm | - | - | - |
| 1777592393 | 12.22° C | 46% | 1015.3 hPa | 0 mm | - | - | - |
| 1777592088 | 12.22° C | 46% | 1015.3 hPa | 0 mm | - | - | - |
| 1777591786 | 12.78° C | 45% | 1015.4 hPa | 0 mm | - | - | - |
| 1777591482 | 13.33° C | 43% | 1015.1 hPa | 0 mm | - | - | - |
| 1777591178 | 13.33° C | 41% | 1015.3 hPa | 0 mm | - | - | - |
| 1777590872 | 13.33° C | 43% | 1015.4 hPa | 0 mm | - | - | - |
| 1777590570 | 13.33° C | 43% | 1015.2 hPa | 0 mm | - | - | - |
| 1777590266 | 13.33° C | 43% | 1015.5 hPa | 0 mm | - | - | - |
| 1777589964 | 12.78° C | 41% | 1015.4 hPa | 0 mm | - | - | - |
| 1777589660 | 13.33° C | 39% | 1015.5 hPa | 0 mm | - | - | - |
| 1777589357 | 13.33° C | 44% | 1015.5 hPa | 0 mm | - | - | - |
| 1777589054 | 12.78° C | 44% | 1015.7 hPa | 0 mm | - | - | - |
| 1777588750 | 12.78° C | 44% | 1015.7 hPa | 0 mm | - | - | - |
| 1777588446 | 13.33° C | 43% | 1015.5 hPa | 0 mm | - | - | - |
| 1777588141 | 13.89° C | 40% | 1015.5 hPa | 0 mm | - | - | - |
| 1777587838 | 13.89° C | 41% | 1015.9 hPa | 0 mm | - | - | - |
| 1777587537 | 13.89° C | 41% | 1015.7 hPa | 0 mm | - | - | - |
| 1777587233 | 13.89° C | 44% | 1015.5 hPa | 0 mm | - | - | - |
* Rain latest hour (hover to see other rain measurements)
** Current wind speed in m/s (hover to see current wind gust speed)